Portada
METAR-TAF:

METAR-TAF

Aeroports :

Weipa, Austràlia

latitud: 12-40-43S, longitud: 141-55-31E, altitud: 19 m

Observació

L'informe es va fer fa 1 hora i 7 minuts, a les 19:00 UTC
Vent 2 kt del Nord-Est
Temperatura 23°C
Humitat 83%
Pressió 1010 hPa
Visibilitat 10 km o més
Cel ennuvolat a una alçada de 2600 ft

METAR: YBWP 131900Z AUTO 04002KT 9999 // BKN026 23/20 Q1010

Hora: 06:07 (20:07 UTC)


TAF: manca

Observacions i pronòstics meteorològics de més de 4000 aeroports (METAR i TAF).

Les estacions disponibles són els punts grocs i vermells al mapa.

Posi el ratolí al punt desitjat per veure el nom de l'estació.

Feu clic per veure les observacions i els pronòstics meteorològics.

Per canviar el mapa: feu clic els botons verds amb una creu de color negre per apropar; al botó verd amb un guió per allunyar la imatge; o en les fletxes verdes per a mapes adjacents.


METAR-TAF: